Location: Belfast
(54.5830°N, 5.9330°W)
Time: 06:53:22
(UTC+01:00)

ISS - Pass Details

Date: 13 October 2017
Orbit: 400 x 408 km, 51.6° (Epoch: 24 October)

Event Time Altitude Azimuth Distance (km) Brightness Sun altitude
Rises 19:02:28 0° 276° (W) 2,326 2.1 -5.5°
Reaches altitude 10° 19:04:46 10° 263° (W) 1,465 0.9 -5.8°
Maximum altitude 19:07:32 25° 205° (SSW) 858 -1.8 -6.2°
Drops below altitude 10° 19:10:18 10° 148° (SSE) 1,464 -1.3 -6.6°
Sets 19:12:35 0° 134° (SE) 2,323 -0.4 -6.9°
Enters shadow 19:12:35 - 134° (SE) 2,326 -0.4 -6.9°
